• In Romania
  • List of Countries
  • For 7 days
  • Water Temperature
  • Satellite Maps
  • Weather Map
  • Weather Widgets
  • user-avatar
    Login

    Hourly Weather Lubango

    Today, 23 October, Monday

    Time Temperature Precipitation Wind Pressure Humidity
    00:00 +16°C° 0 mm 0 mps 610 mmHg 58%
    01:00 +16°C° 0 mm 0 mps 610 mmHg 60%
    02:00 +16°C° 0.5 mm 0 mps 609 mmHg 60%
    03:00 +16°C° 0.5 mm 0 mps 609 mmHg 60%
    04:00 +15°C° 0.5 mm 0 mps 609 mmHg 60%
    05:00 +19°C° 0.5 mm 1 mps 610 mmHg 55%
    06:00 +20°C° 0.5 mm 1 mps 610 mmHg 49%
    07:00 +21°C° 0.5 mm 1 mps 611 mmHg 44%
    08:00 +24°C° 0.3 mm 1 mps 612 mmHg 38%
    09:00 +27°C° 0.3 mm 1 mps 613 mmHg 32%
    10:00 +30°C° 0.3 mm 1 mps 614 mmHg 25%
    11:00 +30°C° 0.1 mm 1 mps 613 mmHg 26%
    12:00 +30°C° 0.1 mm 1 mps 613 mmHg 26%
    13:00 +31°C° 0.1 mm 1 mps 612 mmHg 26%
    14:00 +29°C° 0.2 mm 2 mps 611 mmHg 28%
    15:00 +28°C° 0.2 mm 2 mps 611 mmHg 31%
    16:00 +27°C° 0.2 mm 2 mps 610 mmHg 34%
    17:00 +25°C° 0.7 mm 2 mps 610 mmHg 41%
    18:00 +23°C° 0.7 mm 2 mps 610 mmHg 48%
    19:00 +20°C° 0.7 mm 2 mps 610 mmHg 55%
    20:00 +20°C° 0.2 mm 2 mps 610 mmHg 58%
    21:00 +21°C° 0.2 mm 1 mps 610 mmHg 60%
    22:00 +20°C° 0.2 mm 1 mps 611 mmHg 63%
    23:00 +20°C° 0.6 mm 1 mps 610 mmHg 64%

    Tomorrow, 24 October, Tuesday

    Time Temperature Precipitation Wind Pressure Humidity
    00:00 +20°C° 0.6 mm 1 mps 610 mmHg 66%
    01:00 +19°C° 0.6 mm 1 mps 609 mmHg 67%
    02:00 +19°C° 0.1 mm 1 mps 609 mmHg 66%
    03:00 +17°C° 0.1 mm 0 mps 609 mmHg 66%
    04:00 +17°C° 0.1 mm 0 mps 608 mmHg 66%
    05:00 +20°C° 0.2 mm 1 mps 609 mmHg 63%
    06:00 +20°C° 0.2 mm 1 mps 610 mmHg 60%
    07:00 +21°C° 0.2 mm 1 mps 610 mmHg 57%
    08:00 +23°C° 0.2 mm 1 mps 611 mmHg 49%
    09:00 +26°C° 0.2 mm 1 mps 612 mmHg 42%
    10:00 +28°C° 0.2 mm 1 mps 613 mmHg 35%
    11:00 +28°C° 0.7 mm 2 mps 612 mmHg 37%
    12:00 +27°C° 0.7 mm 2 mps 612 mmHg 38%
    13:00 +27°C° 0.7 mm 2 mps 611 mmHg 40%
    14:00 +25°C° 5.2 mm 2 mps 610 mmHg 48%
    15:00 +23°C° 5.2 mm 2 mps 609 mmHg 57%
    16:00 +20°C° 5.2 mm 2 mps 608 mmHg 65%
    17:00 +20°C° 5.7 mm 2 mps 609 mmHg 69%
    18:00 +19°C° 5.7 mm 2 mps 609 mmHg 73%
    19:00 +19°C° 5.7 mm 1 mps 610 mmHg 77%
    20:00 +19°C° 1.4 mm 1 mps 610 mmHg 78%
    21:00 +19°C° 1.4 mm 1 mps 611 mmHg 79%
    22:00 +19°C° 1.4 mm 1 mps 611 mmHg 80%
    23:00 +19°C° 0.2 mm 1 mps 610 mmHg 79%

    Day after tomorrow, 25 October, Wednesday

    Time Temperature Precipitation Wind Pressure Humidity
    00:00 +17°C° 0.2 mm 0 mps 610 mmHg 79%
    01:00 +17°C° 0.2 mm 0 mps 610 mmHg 78%
    02:00 +16°C° 0.2 mm 0 mps 609 mmHg 78%
    03:00 +18°C° 0.2 mm 1 mps 609 mmHg 78%
    04:00 +18°C° 0.2 mm 1 mps 609 mmHg 79%
    05:00 +19°C° 0 mm 1 mps 609 mmHg 75%
    06:00 +19°C° 0 mm 1 mps 610 mmHg 72%
    07:00 +20°C° 0 mm 1 mps 610 mmHg 69%
    08:00 +22°C° 0 mm 1 mps 611 mmHg 59%
    09:00 +24°C° 0 mm 1 mps 612 mmHg 50%
    10:00 +26°C° 0 mm 1 mps 613 mmHg 40%
    11:00 +28°C° 0.3 mm 1 mps 613 mmHg 37%
    12:00 +29°C° 0.3 mm 1 mps 613 mmHg 34%
    13:00 +30°C° 0.3 mm 1 mps 613 mmHg 31%
    14:00 +29°C° 0.3 mm 2 mps 612 mmHg 34%
    15:00 +28°C° 0.3 mm 3 mps 611 mmHg 38%
    16:00 +26°C° 0.3 mm 3 mps 610 mmHg 42%
    17:00 +25°C° 0.7 mm 3 mps 610 mmHg 48%
    18:00 +23°C° 0.7 mm 2 mps 610 mmHg 54%
    19:00 +20°C° 0.7 mm 2 mps 610 mmHg 60%
    20:00 +20°C° 0.2 mm 2 mps 610 mmHg 62%
    21:00 +20°C° 0.2 mm 1 mps 610 mmHg 64%
    22:00 +20°C° 0.2 mm 1 mps 610 mmHg 66%
    23:00 +20°C° 0.1 mm 1 mps 610 mmHg 67%

    26 October, Thursday

    Time Temperature Precipitation Wind Pressure Humidity
    00:00 +19°C° 0.1 mm 1 mps 609 mmHg 69%
    01:00 +19°C° 0.1 mm 1 mps 609 mmHg 70%
    02:00 +19°C° 0.8 mm 1 mps 609 mmHg 72%
    03:00 +18°C° 0.8 mm 1 mps 608 mmHg 73%
    04:00 +18°C° 0.8 mm 1 mps 608 mmHg 75%
    05:00 +19°C° 0.3 mm 1 mps 609 mmHg 70%
    06:00 +20°C° 0.3 mm 1 mps 610 mmHg 66%
    07:00 +19°C° 0.3 mm 0 mps 610 mmHg 61%
    08:00 +23°C° 0 mm 1 mps 611 mmHg 53%
    09:00 +25°C° 0 mm 1 mps 612 mmHg 45%
    10:00 +27°C° 0 mm 1 mps 613 mmHg 36%
    11:00 +28°C° 0 mm 2 mps 612 mmHg 35%
    12:00 +29°C° 0 mm 2 mps 612 mmHg 34%
    13:00 +29°C° 0 mm 2 mps 611 mmHg 34%
    14:00 +28°C° 1 mm 3 mps 611 mmHg 36%
    15:00 +27°C° 1 mm 3 mps 610 mmHg 38%
    16:00 +26°C° 1 mm 3 mps 610 mmHg 40%
    17:00 +24°C° 0.5 mm 3 mps 609 mmHg 46%
    18:00 +22°C° 0.5 mm 3 mps 609 mmHg 52%
    19:00 +20°C° 0.5 mm 2 mps 609 mmHg 58%
    20:00 +19°C° 0.4 mm 2 mps 609 mmHg 60%
    21:00 +20°C° 0.4 mm 1 mps 609 mmHg 63%
    22:00 +19°C° 0.4 mm 1 mps 609 mmHg 65%
    23:00 +18°C° 0.2 mm 1 mps 609 mmHg 66%

    27 October, Friday

    Time Temperature Precipitation Wind Pressure Humidity
    00:00 +18°C° 0.2 mm 1 mps 608 mmHg 68%
    01:00 +18°C° 0.2 mm 1 mps 608 mmHg 69%
    02:00 +16°C° 0 mm 1 mps 608 mmHg 69%
    03:00 +16°C° 0 mm 1 mps 607 mmHg 70%
    04:00 +15°C° 0 mm 1 mps 607 mmHg 71%
    05:00 +16°C° 0 mm 1 mps 608 mmHg 67%
    06:00 +16°C° 0 mm 0 mps 609 mmHg 62%
    07:00 +17°C° 0 mm 0 mps 609 mmHg 58%
    08:00 +22°C° 0 mm 1 mps 610 mmHg 47%
    09:00 +25°C° 0 mm 1 mps 611 mmHg 35%
    10:00 +27°C° 0 mm 1 mps 612 mmHg 24%
    11:00 +28°C° 0 mm 2 mps 612 mmHg 23%
    12:00 +29°C° 0 mm 2 mps 611 mmHg 22%
    13:00 +30°C° 0 mm 3 mps 611 mmHg 20%
    14:00 +29°C° 0 mm 3 mps 611 mmHg 22%
    15:00 +28°C° 0 mm 3 mps 610 mmHg 24%
    16:00 +28°C° 0 mm 4 mps 609 mmHg 26%
    17:00 +25°C° 0 mm 3 mps 609 mmHg 31%
    18:00 +22°C° 0 mm 3 mps 609 mmHg 37%
    19:00 +20°C° 0 mm 2 mps 608 mmHg 43%
    20:00 +19°C° 0 mm 2 mps 608 mmHg 46%
    21:00 +18°C° 0 mm 2 mps 608 mmHg 50%
    22:00 +19°C° 0 mm 1 mps 608 mmHg 53%
    23:00 +18°C° 0 mm 1 mps 608 mmHg 56%

    28 October, Saturday

    Time Temperature Precipitation Wind Pressure Humidity
    00:00 +18°C° 0 mm 1 mps 607 mmHg 58%
    01:00 +16°C° 0 mm 1 mps 607 mmHg 60%
    02:00 +16°C° 0 mm 1 mps 607 mmHg 61%
    03:00 +15°C° 0 mm 1 mps 607 mmHg 62%
    04:00 +15°C° 0 mm 1 mps 606 mmHg 63%
    05:00 +16°C° 0 mm 1 mps 607 mmHg 59%
    06:00 +18°C° 0 mm 1 mps 608 mmHg 55%
    07:00 +17°C° 0 mm 0 mps 609 mmHg 51%
    08:00 +21°C° 0 mm 1 mps 610 mmHg 43%
    09:00 +24°C° 0 mm 1 mps 610 mmHg 34%
    10:00 +26°C° 0 mm 1 mps 611 mmHg 26%
    11:00 +28°C° 0 mm 2 mps 611 mmHg 24%
    12:00 +29°C° 0 mm 2 mps 611 mmHg 22%
    13:00 +30°C° 0 mm 3 mps 611 mmHg 20%
    14:00 +29°C° 0 mm 3 mps 610 mmHg 22%
    15:00 +28°C° 0 mm 3 mps 609 mmHg 24%
    16:00 +28°C° 0 mm 4 mps 609 mmHg 26%
    17:00 +25°C° 0 mm 3 mps 609 mmHg 32%
    18:00 +22°C° 0 mm 3 mps 608 mmHg 38%
    19:00 +20°C° 0 mm 2 mps 608 mmHg 44%
    20:00 +19°C° 0 mm 2 mps 608 mmHg 47%
    21:00 +18°C° 0 mm 2 mps 608 mmHg 50%
    22:00 +18°C° 0 mm 1 mps 608 mmHg 53%
    23:00 +18°C° 0 mm 1 mps 607 mmHg 56%

    29 October, Sunday

    Time Temperature Precipitation Wind Pressure Humidity
    00:00 +16°C° 0 mm 1 mps 607 mmHg 58%
    01:00 +16°C° 0 mm 1 mps 606 mmHg 60%
    02:00 +15°C° 0 mm 1 mps 606 mmHg 62%
    03:00 +15°C° 0 mm 1 mps 606 mmHg 64%
    04:00 +14°C° 0 mm 0 mps 606 mmHg 65%
    05:00 +16°C° 0 mm 1 mps 607 mmHg 61%
    06:00 +18°C° 0 mm 1 mps 607 mmHg 57%
    07:00 +19°C° 0 mm 1 mps 608 mmHg 53%
    08:00 +21°C° 0 mm 1 mps 609 mmHg 44%
    09:00 +24°C° 0 mm 1 mps 610 mmHg 34%
    10:00 +27°C° 0 mm 1 mps 611 mmHg 24%
    11:00 +28°C° 0 mm 1 mps 611 mmHg 22%
    12:00 +29°C° 0 mm 2 mps 611 mmHg 20%
    13:00 +30°C° 0 mm 2 mps 611 mmHg 18%
    14:00 +29°C° 0 mm 3 mps 610 mmHg 19%
    15:00 +29°C° 0 mm 3 mps 610 mmHg 20%
    16:00 +28°C° 0 mm 4 mps 609 mmHg 21%
    17:00 +26°C° 0 mm 4 mps 609 mmHg 27%
    18:00 +24°C° 0 mm 3 mps 609 mmHg 33%
    19:00 +20°C° 0 mm 3 mps 608 mmHg 38%
    20:00 +19°C° 0 mm 2 mps 608 mmHg 42%
    21:00 +19°C° 0 mm 2 mps 609 mmHg 45%
    22:00 +19°C° 0 mm 1 mps 609 mmHg 48%
    23:00 +18°C° 0 mm 1 mps 609 mmHg 50%
    Show more